Location: Agenbach
(47.2667°N, 11.4500°E)
Time: 06:04:28
(UTC+00:00)

Cosmos 1455 - Pass Details

Date: 07 June 2020
Orbit: 499 x 523 km, 82.5° (Epoch: 04 July)

Event Time Altitude Azimuth Distance (km) Brightness Sun altitude
Rises 00:54:28 0° 334° (NNW) 2,603 6.4 -16.3°
Reaches altitude 10° 00:57:13 10° 312° (NW) 1,713 5.0 -16.1°
Maximum altitude 00:59:32 16° 274° (W) 1,381 4.1 -16.0°
Enters shadow 01:00:05 15° 263° (W) 1,401 4.1 -15.9°
